Content
SEND FEEDBACK

Daily
Averages
Monthly
Summary
United States of America

FREDONIA, KANSAS


Home > North America > United States > Kansas
Elevation: 930 feet     Latitude: 37 32N     Longitude: 095 48W

WEATHER
 
SELECT A DAY
Number of Records: 189,517;   Date Range: 7/1/96 - 12/26/14
 
SHARE

PRINT THIS DATA

[ ← Previous Day ]
WEATHER ALMANAC - FEBRUARY 13, 2013
[ Next Day → ]
[ °C ]   °F
Weather ElementAverageHighLow
Temperature34.8 °F51.1 °F (3:52 pm)28.4 °F (5:16 am)
Dewpoint29.7 °F36 °F (12:52 pm)26.6 °F (6:12 am)
Humidity84 %100 % (2:29 am)41 % (4:52 pm)
Barometer29.98 in30.03 in (10:52 am)29.91 in (5:52 pm)
Wind Speed5.1 mph12.7 mph (3:52 pm)
Wind Gust18.4 mph (2:52 pm)
Weather ElementAverage
Visibility5.9 mi
Wind DirectionSSE (171.8 °)

Weather ElementTotal
Precipitation0.28 in
Heating Degree Days25.3 (Base 65)
Averaged from 39 records on February 13, 2013
WEATHER CONDITIONS BREAKOUT
WIND DIRECTION BREAKOUT
WEATHER BY HOUR - FEBRUARY 13, 2013
[ °C ]   °F
Local TimeTemperatureDewpointHumidityBarometerVisibilityWind DirectionWind SpeedGust SpeedPrecipitationEventsConditions
12:52 AM33.1 °F30.9 °F92 %30.02 in4.0 miCalmOvercast
1:47 AM32.0 °F30.2 °F93 %30.00 in2.5 miCalmScattered Clouds
1:52 AM32.0 °F30.9 °F96 %30.02 in2.5 miCalmScattered Clouds
2:00 AM32.0 °F30.2 °F93 %30.01 in3.0 miCalmPartly Cloudy
2:20 AM32.0 °F30.2 °F93 %30.00 in1.5 miCalmScattered Clouds
2:22 AM32.0 °F30.2 °F93 %30.00 in1.0 miCalmMist
2:29 AM30.2 °F30.2 °F100 %30.00 in0.5 miCalmFogLight Freezing Fog
2:52 AM32.0 °F30.0 °F92 %30.02 in0.2 miSW (220°)3.5 mphFogFog
3:52 AM30.9 °F28.9 °F92 %30.00 in0.2 miSW (220°)5.8 mphFogLight Freezing Fog
4:36 AM30.2 °F28.4 °F93 %29.97 in1.2 miSSW (200°)4.6 mphOvercast
4:39 AM30.2 °F28.4 °F93 %29.97 in2.0 miSSW (210°)4.6 mphOvercast
4:47 AM30.2 °F28.4 °F93 %29.97 in6.0 miSSW (210°)4.6 mphMostly Cloudy
4:52 AM30.0 °F28.9 °F96 %29.99 in5.0 miSW (220°)5.8 mphMostly Cloudy
5:06 AM30.2 °F28.4 °F93 %29.97 in2.0 miSSW (210°)4.6 mphMostly Cloudy
5:16 AM28.4 °F28.4 °F100 %29.97 in6.0 miSSW (210°)4.6 mphMostly Cloudy
5:23 AM28.4 °F28.4 °F100 %29.97 in6.0 miSSW (210°)4.6 mphScattered Clouds
5:52 AM28.9 °F27.0 °F92 %30.00 in7.0 miWSW (240°)3.5 mphPartly Cloudy
6:12 AM28.4 °F26.6 °F93 %29.98 in5.0 miCalmMostly Cloudy
6:52 AM30.0 °F28.0 °F92 %30.01 in7.0 miWSW (250°)5.8 mphOvercast
7:52 AM30.9 °F28.9 °F92 %30.01 in5.0 miSW (230°)5.8 mphOvercast
8:11 AM30.2 °F30.2 °F100 %29.98 in5.0 miSSW (210°)5.8 mphOvercast
8:52 AM30.9 °F28.9 °F92 %30.02 in5.0 miSW (230°)9.2 mphOvercast
9:52 AM30.9 °F30.0 °F96 %30.02 in5.0 miSSW (210°)6.9 mphOvercast
10:52 AM32.0 °F30.0 °F92 %30.03 in5.0 miSW (230°)6.9 mph0.04 inOvercast
11:07 AM32.0 °F30.2 °F93 %30.01 in6.0 miSW (220°)6.9 mph0.03 inMostly Cloudy
11:26 AM33.8 °F30.2 °F87 %30.01 in7.0 miSSW (210°)8.1 mph0.06 inScattered Clouds
11:52 AM35.1 °F33.1 °F92 %30.02 in9.0 miSSW (210°)9.2 mph0.13 inPartly Cloudy
12:52 PM42.1 °F36.0 °F79 %29.99 in10.0 miSW (230°)9.2 mph0.02 inClear
1:52 PM45.0 °F35.1 °F68 %29.96 in10.0 miSW (230°)11.5 mphClear
2:52 PM48.9 °F35.1 °F59 %29.94 in10.0 miSW (230°)10.4 mph18.4 mphClear
3:52 PM51.1 °F28.9 °F43 %29.93 in10.0 miWSW (250°)12.7 mphClear
4:52 PM51.1 °F28.0 °F41 %29.92 in10.0 miWSW (240°)10.4 mphClear
5:52 PM48.0 °F28.9 °F48 %29.91 in10.0 miWSW (240°)9.2 mphClear
6:52 PM43.0 °F28.9 °F58 %29.92 in10.0 miSW (230°)4.6 mphClear
7:52 PM41.0 °F28.0 °F60 %29.94 in10.0 miSW (230°)5.8 mphClear
8:52 PM39.0 °F28.0 °F65 %29.94 in10.0 miSW (220°)4.6 mphClear
9:52 PM39.0 °F30.0 °F70 %29.94 in10.0 miSW (220°)5.8 mphClear
10:52 PM37.0 °F30.0 °F76 %29.95 in10.0 miSW (230°)4.6 mphClear
11:52 PM36.0 °F28.9 °F76 %29.95 in10.0 miCalmClear
Hourly data recorded from KPPF, located miles away from Fredonia, Kansas







STORIES FROM OUR PARTNERS